When you browse on this site, cookies collect data to enhance your experience and personalize the content and advertising you see.
Visit our Privacy Policy to learn more. By continuing to use the site, you agree to this use of cookies and data.
  • en France
  • Liste des pays
  • À 7 jours
  • Température de l'eau
  • Carte satellitaire
  • Carte météo
  • Widgets météo
  • user-avatar
    Se connecter

    Météo par heure à Abrest

    Ce jour, 17 Février, Dimanche

    Heure Température Précipitation Vent Pression Humidité
    00:00 +7°C° 0 mm 3 m/s 739 mmHg 53%
    01:00 +6°C° 0 mm 2 m/s 739 mmHg 50%
    02:00 +6°C° 0 mm 2 m/s 739 mmHg 47%
    03:00 +5°C° 0 mm 2 m/s 738 mmHg 44%
    04:00 +5°C° 0 mm 2 m/s 738 mmHg 44%
    05:00 +5°C° 0 mm 2 m/s 738 mmHg 44%
    06:00 +5°C° 0 mm 2 m/s 738 mmHg 43%
    07:00 +6°C° 0 mm 2 m/s 738 mmHg 43%
    08:00 +8°C° 0 mm 3 m/s 738 mmHg 42%
    09:00 +10°C° 0 mm 3 m/s 738 mmHg 41%
    10:00 +12°C° 0 mm 3 m/s 738 mmHg 38%
    11:00 +14°C° 0 mm 3 m/s 737 mmHg 34%
    12:00 +18°C° 0 mm 3 m/s 737 mmHg 31%
    13:00 +18°C° 0 mm 3 m/s 737 mmHg 32%
    14:00 +18°C° 0 mm 3 m/s 737 mmHg 33%
    15:00 +19°C° 0 mm 2 m/s 737 mmHg 34%
    16:00 +16°C° 0 mm 2 m/s 736 mmHg 41%
    17:00 +14°C° 0 mm 2 m/s 736 mmHg 48%
    18:00 +10°C° 0 mm 2 m/s 736 mmHg 55%
    19:00 +9°C° 0 mm 2 m/s 736 mmHg 59%
    20:00 +8°C° 0 mm 2 m/s 736 mmHg 63%
    21:00 +7°C° 0 mm 2 m/s 736 mmHg 67%
    22:00 +7°C° 0 mm 2 m/s 736 mmHg 69%
    23:00 +6°C° 0 mm 2 m/s 736 mmHg 71%

    Demain, 18 Février, Lundi

    Heure Température Précipitation Vent Pression Humidité
    00:00 +5°C° 0 mm 2 m/s 737 mmHg 72%
    01:00 +5°C° 0 mm 2 m/s 736 mmHg 71%
    02:00 +5°C° 0 mm 2 m/s 736 mmHg 69%
    03:00 +4°C° 0 mm 2 m/s 736 mmHg 67%
    04:00 +4°C° 0 mm 2 m/s 736 mmHg 69%
    05:00 +4°C° 0 mm 2 m/s 736 mmHg 71%
    06:00 +4°C° 0 mm 2 m/s 736 mmHg 73%
    07:00 +5°C° 0 mm 2 m/s 736 mmHg 70%
    08:00 +7°C° 0 mm 3 m/s 736 mmHg 67%
    09:00 +8°C° 0 mm 3 m/s 736 mmHg 64%
    10:00 +10°C° 0 mm 3 m/s 736 mmHg 58%
    11:00 +12°C° 0 mm 3 m/s 736 mmHg 52%
    12:00 +14°C° 0 mm 3 m/s 735 mmHg 47%
    13:00 +14°C° 0 mm 3 m/s 735 mmHg 46%
    14:00 +16°C° 0 mm 2 m/s 735 mmHg 45%
    15:00 +16°C° 0 mm 2 m/s 735 mmHg 45%
    16:00 +14°C° 0 mm 2 m/s 735 mmHg 53%
    17:00 +12°C° 0 mm 2 m/s 735 mmHg 61%
    18:00 +9°C° 0 mm 2 m/s 735 mmHg 69%
    19:00 +8°C° 0 mm 2 m/s 735 mmHg 73%
    20:00 +7°C° 0 mm 2 m/s 736 mmHg 77%
    21:00 +6°C° 0 mm 2 m/s 736 mmHg 81%
    22:00 +6°C° 0 mm 2 m/s 736 mmHg 82%
    23:00 +5°C° 0 mm 2 m/s 736 mmHg 84%

    Après-demain, 19 Février, Mardi

    Heure Température Précipitation Vent Pression Humidité
    00:00 +5°C° 0 mm 2 m/s 736 mmHg 85%
    01:00 +5°C° 0 mm 2 m/s 736 mmHg 85%
    02:00 +4°C° 0 mm 2 m/s 736 mmHg 86%
    03:00 +4°C° 0 mm 2 m/s 737 mmHg 86%
    04:00 +5°C° 0 mm 1 m/s 737 mmHg 86%
    05:00 +5°C° 0 mm 1 m/s 737 mmHg 86%
    06:00 +4°C° 0 mm 1 m/s 737 mmHg 86%
    07:00 +6°C° 0 mm 1 m/s 737 mmHg 79%
    08:00 +8°C° 0 mm 1 m/s 737 mmHg 72%
    09:00 +9°C° 0 mm 1 m/s 738 mmHg 65%
    10:00 +10°C° 0 mm 0 m/s 738 mmHg 60%
    11:00 +12°C° 0 mm 0 m/s 738 mmHg 56%
    12:00 +14°C° 0 mm 0 m/s 737 mmHg 51%
    13:00 +14°C° 0 mm 0 m/s 737 mmHg 51%
    14:00 +14°C° 0 mm 0 m/s 737 mmHg 50%
    15:00 +14°C° 0 mm 0 m/s 736 mmHg 50%
    16:00 +12°C° 0 mm 0 m/s 736 mmHg 59%
    17:00 +11°C° 0 mm 1 m/s 736 mmHg 69%
    18:00 +9°C° 0 mm 1 m/s 737 mmHg 78%
    19:00 +8°C° 0 mm 1 m/s 737 mmHg 82%
    20:00 +7°C° 0 mm 1 m/s 737 mmHg 86%
    21:00 +6°C° 0 mm 0 m/s 737 mmHg 90%
    22:00 +5°C° 0 mm 0 m/s 737 mmHg 90%
    23:00 +5°C° 0 mm 0 m/s 738 mmHg 90%

    20 Février, Mercredi

    Heure Température Précipitation Vent Pression Humidité
    00:00 +6°C° 0 mm 1 m/s 738 mmHg 90%
    01:00 +6°C° 0 mm 1 m/s 738 mmHg 90%
    02:00 +5°C° 0 mm 1 m/s 738 mmHg 89%
    03:00 +5°C° 0 mm 1 m/s 737 mmHg 88%
    04:00 +5°C° 0 mm 1 m/s 738 mmHg 87%
    05:00 +5°C° 0 mm 1 m/s 738 mmHg 86%
    06:00 +5°C° 0 mm 1 m/s 738 mmHg 85%
    07:00 +6°C° 0 mm 1 m/s 738 mmHg 78%
    08:00 +8°C° 0 mm 1 m/s 739 mmHg 71%
    09:00 +10°C° 0 mm 1 m/s 739 mmHg 64%
    10:00 +12°C° 0 mm 1 m/s 739 mmHg 57%
    11:00 +14°C° 0 mm 1 m/s 739 mmHg 50%
    12:00 +15°C° 0 mm 0 m/s 739 mmHg 44%
    13:00 +15°C° 0 mm 0 m/s 739 mmHg 43%
    14:00 +15°C° 0 mm 0 m/s 739 mmHg 43%
    15:00 +16°C° 0 mm 1 m/s 738 mmHg 42%
    16:00 +14°C° 0 mm 1 m/s 739 mmHg 50%
    17:00 +12°C° 0 mm 1 m/s 739 mmHg 59%
    18:00 +10°C° 0 mm 1 m/s 739 mmHg 67%
    19:00 +9°C° 0 mm 1 m/s 739 mmHg 69%
    20:00 +8°C° 0 mm 1 m/s 740 mmHg 71%
    21:00 +8°C° 0 mm 1 m/s 740 mmHg 73%
    22:00 +7°C° 0 mm 1 m/s 740 mmHg 74%
    23:00 +7°C° 0 mm 1 m/s 740 mmHg 74%

    21 Février, Jeudi

    Heure Température Précipitation Vent Pression Humidité
    00:00 +7°C° 0 mm 1 m/s 740 mmHg 74%
    01:00 +6°C° 0 mm 1 m/s 740 mmHg 74%
    02:00 +6°C° 0 mm 1 m/s 740 mmHg 74%
    03:00 +6°C° 0 mm 1 m/s 740 mmHg 73%
    04:00 +6°C° 0 mm 1 m/s 741 mmHg 73%
    05:00 +5°C° 0 mm 1 m/s 741 mmHg 72%
    06:00 +5°C° 0 mm 1 m/s 741 mmHg 72%
    07:00 +7°C° 0 mm 1 m/s 741 mmHg 66%
    08:00 +9°C° 0 mm 1 m/s 741 mmHg 59%
    09:00 +11°C° 0 mm 1 m/s 742 mmHg 53%
    10:00 +13°C° 0 mm 1 m/s 742 mmHg 48%
    11:00 +14°C° 0 mm 1 m/s 742 mmHg 43%
    12:00 +16°C° 0 mm 1 m/s 742 mmHg 38%
    13:00 +16°C° 0 mm 1 m/s 742 mmHg 39%
    14:00 +16°C° 0 mm 1 m/s 741 mmHg 40%
    15:00 +16°C° 0 mm 1 m/s 741 mmHg 41%
    16:00 +14°C° 0 mm 1 m/s 741 mmHg 50%
    17:00 +12°C° 0 mm 1 m/s 742 mmHg 58%
    18:00 +10°C° 0 mm 1 m/s 742 mmHg 67%
    19:00 +9°C° 0 mm 1 m/s 742 mmHg 69%
    20:00 +8°C° 0 mm 1 m/s 742 mmHg 71%
    21:00 +7°C° 0 mm 1 m/s 743 mmHg 74%
    22:00 +6°C° 0 mm 0 m/s 743 mmHg 75%
    23:00 +6°C° 0 mm 0 m/s 743 mmHg 76%

    22 Février, Vendredi

    Heure Température Précipitation Vent Pression Humidité
    00:00 +5°C° 0 mm 0 m/s 743 mmHg 77%
    01:00 +5°C° 0 mm 0 m/s 743 mmHg 78%
    02:00 +5°C° 0 mm 0 m/s 743 mmHg 79%
    03:00 +4°C° 0 mm 0 m/s 743 mmHg 80%
    04:00 +4°C° 0 mm 0 m/s 743 mmHg 81%
    05:00 +4°C° 0 mm 0 m/s 743 mmHg 82%
    06:00 +4°C° 0 mm 0 m/s 743 mmHg 83%
    07:00 +5°C° 0 mm 0 m/s 743 mmHg 77%
    08:00 +7°C° 0 mm 0 m/s 743 mmHg 71%
    09:00 +9°C° 0 mm 0 m/s 743 mmHg 65%
    10:00 +12°C° 0 mm 1 m/s 743 mmHg 60%
    11:00 +13°C° 0 mm 1 m/s 743 mmHg 56%
    12:00 +15°C° 0 mm 2 m/s 743 mmHg 52%
    13:00 +15°C° 0 mm 2 m/s 742 mmHg 52%
    14:00 +15°C° 0 mm 2 m/s 742 mmHg 52%
    15:00 +16°C° 0 mm 2 m/s 742 mmHg 52%
    16:00 +14°C° 0 mm 2 m/s 742 mmHg 61%
    17:00 +12°C° 0 mm 2 m/s 742 mmHg 70%
    18:00 +10°C° 0 mm 1 m/s 742 mmHg 79%
    19:00 +9°C° 0 mm 1 m/s 742 mmHg 82%
    20:00 +8°C° 0 mm 1 m/s 742 mmHg 86%
    21:00 +7°C° 0 mm 1 m/s 742 mmHg 90%
    22:00 +7°C° 0 mm 1 m/s 742 mmHg 91%
    23:00 +5°C° 0 mm 0 m/s 742 mmHg 92%
    Voir plus